| time (UTC) | temp F | wind direction | speed MPH | gust MPH | rain 1hr in | rain 24hr in | rain mn in | humidity % | barometer mb |
| 20260831122028 | 82 | 158 | 5.0 | 10.0 | 0.00 | 0.00 | 0.00 | 39 | 1021.6 |
| 20260831121029 | 82 | 0 | 6.0 | 12.0 | 0.00 | 0.00 | 0.00 | 38 | 1021.6 |
| 20260831120028 | 82 | 180 | 3.0 | 8.0 | 0.00 | 0.00 | 0.00 | 38 | 1021.8 |
| 20260831115049 | 81 | 135 | 5.0 | 10.0 | 0.00 | 0.00 | 0.00 | 39 | 1021.9 |
| 20260831114029 | 81 | 0 | 5.0 | 10.0 | 0.00 | 0.00 | 0.00 | 39 | 1021.9 |
| 20260831113049 | 81 | 158 | 3.0 | 8.0 | 0.00 | 0.00 | 0.00 | 39 | 1021.7 |
| 20260831112028 | 80 | 180 | 4.0 | 11.0 | 0.00 | 0.00 | 0.00 | 41 | 1021.9 |
| 20260831111029 | 80 | 180 | 4.0 | 10.0 | 0.00 | 0.00 | 0.00 | 43 | 1021.8 |
| 20260831110048 | 79 | 158 | 4.0 | 9.0 | 0.00 | 0.00 | 0.00 | 42 | 1021.9 |
| 20260831105028 | 78 | 180 | 5.0 | 10.0 | 0.00 | 0.00 | 0.00 | 43 | 1022.0 |
| 20260831104029 | 79 | 158 | 3.0 | 8.0 | 0.00 | 0.00 | 0.00 | 42 | 1022.0 |
| 20260831103028 | 79 | 158 | 4.0 | 12.0 | 0.00 | 0.00 | 0.00 | 42 | 1022.2 |
| 20260831102028 | 79 | 0 | 4.0 | 12.0 | 0.00 | 0.00 | 0.00 | 41 | 1022.1 |
| 20260831101028 | 79 | 158 | 3.0 | 7.0 | 0.00 | 0.00 | 0.00 | 42 | 1022.2 |
| 20260831100109 | 78 | 158 | 3.0 | 8.0 | 0.00 | 0.00 | 0.00 | 43 | 1022.1 |
| 20260831095028 | 77 | 180 | 4.0 | 8.0 | 0.00 | 0.00 | 0.00 | 46 | 1022.1 |
| 20260831094028 | 77 | 180 | 4.0 | 8.0 | 0.00 | 0.00 | 0.00 | 46 | 1022.1 |
| 20260831093028 | 77 | 203 | 2.0 | 6.0 | 0.00 | 0.00 | 0.00 | 47 | 1022.2 |
| 20260831092028 | 77 | 180 | 3.0 | 6.0 | 0.00 | 0.00 | 0.00 | 48 | 1022.2 |
| 20260831091028 | 77 | 180 | 4.0 | 7.0 | 0.00 | 0.00 | 0.00 | 48 | 1022.2 |
| 20260831090048 | 76 | 180 | 3.0 | 7.0 | 0.00 | 0.00 | 0.00 | 49 | 1022.1 |
| 20260831085028 | 76 | 0 | 4.0 | 8.0 | 0.00 | 0.00 | 0.00 | 50 | 1022.1 |
| 20260831084028 | 77 | 158 | 3.0 | 6.0 | 0.00 | 0.00 | 0.00 | 49 | 1022.0 |
| 20260831083028 | 77 | 158 | 2.0 | 5.0 | 0.00 | 0.00 | 0.00 | 48 | 1022.1 |
| 20260831082028 | 76 | 158 | 2.0 | 4.0 | 0.00 | 0.00 | 0.00 | 52 | 1022.0 |
| 20260831081028 | 76 | 158 | 2.0 | 5.0 | 0.00 | 0.00 | 0.00 | 53 | 1021.8 |
| 20260831080028 | 76 | 158 | 1.0 | 3.0 | 0.00 | 0.00 | 0.00 | 51 | 1021.8 |
| 20260831075028 | 75 | 68 | 1.0 | 3.0 | 0.00 | 0.00 | 0.00 | 54 | 1021.8 |
| 20260831074028 | 73 | 0 | 1.0 | 2.0 | 0.00 | 0.00 | 0.00 | 56 | 1021.6 |
| 20260831073048 | 72 | 45 | 1.0 | 4.0 | 0.00 | 0.00 | 0.00 | 58 | 1021.5 |
| 20260831072028 | 70 | 68 | 3.0 | 7.0 | 0.00 | 0.00 | 0.00 | 60 | 1021.3 |
| 20260831071028 | 70 | 68 | 3.0 | 6.0 | 0.00 | 0.00 | 0.00 | 60 | 1021.3 |
| 20260831070028 | 68 | 68 | 4.0 | 9.0 | 0.00 | 0.00 | 0.00 | 63 | 1021.2 |
| 20260831065048 | 67 | 45 | 5.0 | 9.0 | 0.00 | 0.00 | 0.00 | 64 | 1020.9 |
| 20260831064028 | 67 | 45 | 5.0 | 9.0 | 0.00 | 0.00 | 0.00 | 63 | 1020.8 |
| 20260831063028 | 67 | 45 | 6.0 | 9.0 | 0.00 | 0.00 | 0.00 | 63 | 1020.8 |
| 20260831062028 | 66 | 45 | 5.0 | 8.0 | 0.00 | 0.00 | 0.00 | 64 | 1020.7 |
| 20260831061028 | 66 | 23 | 6.0 | 9.0 | 0.00 | 0.00 | 0.00 | 65 | 1020.5 |
| 20260831060048 | 65 | 45 | 5.0 | 9.0 | 0.00 | 0.00 | 0.00 | 65 | 1020.6 |
| 20260831055027 | 65 | 23 | 7.0 | 10.0 | 0.00 | 0.00 | 0.00 | 65 | 1020.4 |
| 20260831054028 | 65 | 23 | 7.0 | 12.0 | 0.00 | 0.00 | 0.00 | 66 | 1020.4 |
| 20260831053027 | 65 | 45 | 7.0 | 11.0 | 0.00 | 0.00 | 0.00 | 66 | 1020.3 |
| 20260831052027 | 64 | 68 | 7.0 | 9.0 | 0.00 | 0.00 | 0.00 | 67 | 1020.1 |
| 20260831051028 | 65 | 45 | 5.0 | 8.0 | 0.00 | 0.00 | 0.00 | 65 | 1020.0 |
| 20260831050027 | 65 | 45 | 5.0 | 8.0 | 0.00 | 0.00 | 0.00 | 66 | 1020.1 |
| 20260831045028 | 65 | 45 | 5.0 | 8.0 | 0.00 | 0.00 | 0.00 | 65 | 1020.2 |
| 20260831044027 | 65 | 45 | 6.0 | 10.0 | 0.00 | 0.00 | 0.00 | 66 | 1020.2 |
| 20260831043027 | 65 | 45 | 7.0 | 10.0 | 0.00 | 0.00 | 0.00 | 66 | 1020.2 |
| 20260831042027 | 65 | 23 | 7.0 | 11.0 | 0.00 | 0.00 | 0.00 | 65 | 1020.2 |
| 20260831041048 | 65 | 23 | 7.0 | 12.0 | 0.00 | 0.00 | 0.00 | 65 | 1020.2 |
| 20260831040027 | 65 | 23 | 7.0 | 11.0 | 0.00 | 0.00 | 0.00 | 66 | 1020.4 |
| 20260831035027 | 65 | 45 | 9.0 | 12.0 | 0.00 | 0.00 | 0.00 | 65 | 1020.4 |
| 20260831034028 | 66 | 45 | 9.0 | 14.0 | 0.00 | 0.00 | 0.00 | 64 | 1020.3 |
| 20260831033027 | 66 | 68 | 8.0 | 12.0 | 0.00 | 0.00 | 0.00 | 64 | 1020.2 |
| 20260831032027 | 66 | 68 | 8.0 | 11.0 | 0.00 | 0.00 | 0.00 | 65 | 1020.2 |
| 20260831031027 | 66 | 45 | 8.0 | 12.0 | 0.00 | 0.00 | 0.00 | 63 | 1020.4 |
| 20260831030027 | 67 | 45 | 6.0 | 10.0 | 0.00 | 0.00 | 0.00 | 62 | 1020.3 |
| 20260831025027 | 67 | 45 | 7.0 | 11.0 | 0.00 | 0.00 | 0.00 | 63 | 1020.4 |
| 20260831024027 | 66 | 45 | 7.0 | 10.0 | 0.00 | 0.00 | 0.00 | 64 | 1020.4 |
| 20260831023027 | 66 | 23 | 6.0 | 11.0 | 0.00 | 0.00 | 0.00 | 64 | 1020.3 |
| 20260831022027 | 66 | 45 | 5.0 | 8.0 | 0.00 | 0.00 | 0.00 | 63 | 1020.3 |
| 20260831021026 | 66 | 45 | 5.0 | 8.0 | 0.00 | 0.00 | 0.00 | 63 | 1020.3 |
| 20260831020026 | 66 | 45 | 5.0 | 8.0 | 0.00 | 0.00 | 0.00 | 63 | 1020.4 |
| 20260831015026 | 67 | 45 | 6.0 | 9.0 | 0.00 | 0.00 | 0.00 | 62 | 1020.5 |
| 20260831014026 | 67 | 45 | 7.0 | 9.0 | 0.00 | 0.00 | 0.00 | 61 | 1020.4 |
| 20260831013046 | 68 | 23 | 5.0 | 8.0 | 0.00 | 0.00 | 0.00 | 60 | 1020.5 |
| 20260831012046 | 68 | 0 | 5.0 | 8.0 | 0.00 | 0.00 | 0.00 | 60 | 1020.4 |
| 20260831011026 | 68 | 45 | 4.0 | 6.0 | 0.00 | 0.00 | 0.00 | 60 | 1020.4 |
| 20260831010026 | 68 | 23 | 4.0 | 8.0 | 0.00 | 0.00 | 0.00 | 61 | 1020.4 |
| 20260831005046 | 68 | 0.0 | 4.0 | 0.00 | 0.00 | 0.00 | 60 | 1020.4 | |
| 20260831004026 | 69 | 248 | 1.0 | 3.0 | 0.00 | 0.00 | 0.00 | 59 | 1020.2 |
| 20260831003026 | 69 | 23 | 6.0 | 9.0 | 0.00 | 0.00 | 0.00 | 59 | 1020.2 |
| 20260831002046 | 69 | 23 | 6.0 | 11.0 | 0.00 | 0.00 | 0.00 | 57 | 1020.2 |
| 20260831001046 | 69 | 23 | 6.0 | 10.0 | 0.00 | 0.00 | 0.00 | 57 | 1020.0 |
| 20260831000026 | 70 | 23 | 7.0 | 11.0 | 0.00 | 0.00 | 0.00 | 57 | 1020.3 |
| 20260830235026 | 70 | 0 | 7.0 | 11.0 | 0.00 | 0.00 | 0.00 | 58 | 1020.3 |
| 20260830234026 | 69 | 23 | 7.0 | 11.0 | 0.00 | 0.00 | 0.00 | 59 | 1020.4 |
| 20260830233046 | 69 | 23 | 7.0 | 13.0 | 0.00 | 0.00 | 0.00 | 60 | 1020.3 |
| 20260830232026 | 68 | 68 | 7.0 | 10.0 | 0.00 | 0.00 | 0.00 | 61 | 1020.4 |
| 20260830231026 | 68 | 45 | 6.0 | 9.0 | 0.00 | 0.00 | 0.00 | 60 | 1020.4 |
| 20260830230026 | 69 | 45 | 5.0 | 9.0 | 0.00 | 0.00 | 0.00 | 59 | 1020.4 |
| 20260830225026 | 69 | 23 | 7.0 | 12.0 | 0.00 | 0.00 | 0.00 | 58 | 1020.4 |
| 20260830224026 | 68 | 45 | 7.0 | 10.0 | 0.00 | 0.00 | 0.00 | 59 | 1020.3 |
| 20260830223026 | 69 | 45 | 5.0 | 10.0 | 0.00 | 0.00 | 0.00 | 58 | 1020.5 |
| 20260830222026 | 69 | 23 | 5.0 | 8.0 | 0.00 | 0.00 | 0.00 | 57 | 1020.4 |
| 20260830221028 | 70 | 68 | 4.0 | 7.0 | 0.00 | 0.00 | 0.00 | 57 | 1020.2 |
| 20260830220048 | 70 | 68 | 5.0 | 7.0 | 0.00 | 0.00 | 0.00 | 57 | 1020.1 |
| 20260830215028 | 70 | 45 | 6.0 | 8.0 | 0.00 | 0.00 | 0.00 | 57 | 1020.2 |
| 20260830214028 | 70 | 45 | 5.0 | 8.0 | 0.00 | 0.00 | 0.00 | 57 | 1020.1 |
| 20260830213028 | 70 | 45 | 4.0 | 8.0 | 0.00 | 0.00 | 0.00 | 57 | 1020.1 |
| 20260830212028 | 71 | 45 | 4.0 | 7.0 | 0.00 | 0.00 | 0.00 | 55 | 1020.1 |
| 20260830211028 | 72 | 23 | 4.0 | 7.0 | 0.00 | 0.00 | 0.00 | 52 | 1020.1 |
| 20260830210028 | 72 | 0 | 5.0 | 7.0 | 0.00 | 0.00 | 0.00 | 52 | 1020.0 |
| 20260830205028 | 72 | 23 | 4.0 | 7.0 | 0.00 | 0.00 | 0.00 | 52 | 1020.0 |
| 20260830204028 | 73 | 23 | 2.0 | 4.0 | 0.00 | 0.00 | 0.00 | 51 | 1020.0 |
| 20260830203028 | 73 | 0 | 2.0 | 4.0 | 0.00 | 0.00 | 0.00 | 50 | 1019.6 |
| 20260830202028 | 73 | 338 | 4.0 | 7.0 | 0.00 | 0.00 | 0.00 | 51 | 1019.6 |
| 20260830201048 | 74 | 315 | 3.0 | 6.0 | 0.00 | 0.00 | 0.00 | 50 | 1019.6 |
| 20260830200027 | 74 | 315 | 2.0 | 4.0 | 0.00 | 0.00 | 0.00 | 50 | 1019.4 |
| 20260830195027 | 75 | 315 | 1.0 | 2.0 | 0.00 | 0.00 | 0.00 | 49 | 1019.3 |
| 20260830194028 | 75 | 315 | 1.0 | 4.0 | 0.00 | 0.00 | 0.00 | 49 | 1019.2 |
| 20260830193028 | 76 | 248 | 3.0 | 6.0 | 0.00 | 0.00 | 0.00 | 48 | 1018.8 |
| 20260830192027 | 77 | 0 | 3.0 | 7.0 | 0.00 | 0.00 | 0.00 | 47 | 1018.7 |
| 20260830191027 | 77 | 248 | 2.0 | 4.0 | 0.00 | 0.00 | 0.00 | 47 | 1018.7 |
| 20260830190047 | 77 | 225 | 2.0 | 4.0 | 0.00 | 0.00 | 0.00 | 46 | 1018.3 |
| 20260830185048 | 77 | 270 | 3.0 | 4.0 | 0.00 | 0.00 | 0.00 | 46 | 1018.2 |
| 20260830184047 | 78 | 248 | 3.0 | 7.0 | 0.00 | 0.00 | 0.00 | 45 | 1018.1 |
| 20260830183027 | 79 | 225 | 4.0 | 8.0 | 0.00 | 0.00 | 0.00 | 44 | 1017.8 |
| 20260830182047 | 79 | 225 | 4.0 | 8.0 | 0.00 | 0.00 | 0.00 | 44 | 1017.7 |
| 20260830181027 | 79 | 225 | 4.0 | 10.0 | 0.00 | 0.00 | 0.00 | 44 | 1017.7 |
| 20260830180027 | 79 | 248 | 6.0 | 9.0 | 0.00 | 0.00 | 0.00 | 44 | 1017.7 |
| 20260830175027 | 81 | 225 | 6.0 | 11.0 | 0.00 | 0.00 | 0.00 | 43 | 1017.6 |
| 20260830174047 | 81 | 0 | 7.0 | 10.0 | 0.00 | 0.00 | 0.00 | 41 | 1017.7 |
| 20260830173027 | 82 | 225 | 7.0 | 12.0 | 0.00 | 0.00 | 0.00 | 40 | 1017.6 |
| 20260830172027 | 83 | 225 | 6.0 | 11.0 | 0.00 | 0.00 | 0.00 | 40 | 1017.6 |
| 20260830171027 | 82 | 0 | 7.0 | 13.0 | 0.00 | 0.00 | 0.00 | 41 | 1017.5 |
| 20260830170027 | 82 | 0 | 9.0 | 14.0 | 0.00 | 0.00 | 0.00 | 41 | 1017.4 |
| 20260830165047 | 83 | 0 | 7.0 | 13.0 | 0.00 | 0.00 | 0.00 | 41 | 1017.5 |
| 20260830164027 | 83 | 0 | 9.0 | 17.0 | 0.00 | 0.00 | 0.00 | 41 | 1017.5 |
| 20260830163047 | 83 | 0 | 11.0 | 19.0 | 0.00 | 0.00 | 0.00 | 41 | 1017.4 |
| 20260830162027 | 83 | 0 | 8.0 | 13.0 | 0.00 | 0.00 | 0.00 | 42 | 1017.4 |
| 20260830161027 | 84 | 158 | 8.0 | 17.0 | 0.00 | 0.00 | 0.00 | 42 | 1017.5 |
| 20260830160027 | 84 | 0 | 10.0 | 17.0 | 0.00 | 0.00 | 0.00 | 43 | 1017.4 |
| 20260830155027 | 84 | 0 | 11.0 | 18.0 | 0.00 | 0.00 | 0.00 | 43 | 1017.4 |
| 20260830154027 | 85 | 0 | 10.0 | 23.0 | 0.00 | 0.00 | 0.00 | 40 | 1017.5 |
| 20260830153027 | 86 | 0 | 10.0 | 18.0 | 0.00 | 0.00 | 0.00 | 37 | 1017.4 |
| 20260830152027 | 86 | 180 | 11.0 | 20.0 | 0.00 | 0.00 | 0.00 | 37 | 1017.5 |
| 20260830151027 | 86 | 0 | 7.0 | 16.0 | 0.00 | 0.00 | 0.00 | 33 | 1017.3 |
| 20260830150027 | 86 | 0 | 7.0 | 14.0 | 0.00 | 0.00 | 0.00 | 35 | 1017.6 |
| 20260830145027 | 86 | 158 | 8.0 | 18.0 | 0.00 | 0.00 | 0.00 | 35 | 1017.7 |
| 20260830144047 | 86 | 0 | 8.0 | 23.0 | 0.00 | 0.00 | 0.00 | 34 | 1017.8 |
| 20260830143027 | 86 | 0 | 8.0 | 16.0 | 0.00 | 0.00 | 0.00 | 34 | 1017.7 |
| 20260830142047 | 85 | 0 | 10.0 | 17.0 | 0.00 | 0.00 | 0.00 | 35 | 1017.9 |
| 20260830141027 | 85 | 0 | 8.0 | 17.0 | 0.00 | 0.00 | 0.00 | 35 | 1018.1 |
| 20260830140028 | 85 | 158 | 8.0 | 16.0 | 0.00 | 0.00 | 0.00 | 35 | 1018.3 |
| 20260830135047 | 85 | 180 | 9.0 | 19.0 | 0.00 | 0.00 | 0.00 | 35 | 1018.4 |
| 20260830134027 | 85 | 225 | 8.0 | 20.0 | 0.00 | 0.00 | 0.00 | 35 | 1018.5 |
| 20260830133026 | 85 | 0 | 8.0 | 17.0 | 0.00 | 0.00 | 0.00 | 36 | 1018.6 |
| 20260830132026 | 84 | 203 | 10.0 | 22.0 | 0.00 | 0.00 | 0.00 | 37 | 1018.7 |
| 20260830131026 | 84 | 203 | 9.0 | 21.0 | 0.00 | 0.00 | 0.00 | 36 | 1018.9 |
| 20260830130107 | 84 | 158 | 5.0 | 12.0 | 0.00 | 0.00 | 0.00 | 36 | 1018.9 |
| 20260830125026 | 84 | 0 | 5.0 | 12.0 | 0.00 | 0.00 | 0.00 | 36 | 1019.1 |
| 20260830123026 | 82 | 158 | 8.0 | 17.0 | 0.00 | 0.00 | 0.00 | 37 | 1019.3 |